FENGYUN 1C DEB

Satellite information

Favourite Embed

Satellite Type and Status

DEBRISIN ORBIT

Key statistics

Satellite FENGYUN 1C DEB at a glance.

Uptime

9496

Days in orbit

Revolutions

≈ 13.7

Per day

Orbit

SSO

Sun Synchronous Orbit

Inclination

99.4

Latest

Satellite identification and parameters

Extended collection of information and parameters for FENGYUN 1C DEB.

Object identification

Identified? True

Debris? True

Object name: FENGYUN 1C DEB

International designator: 1999-025CKS

Object number (NORAD): 31891

Object ID (CCSDS): 31891

Country: PEOPLES REPUBLIC OF CHINA (PRC)

Current information (Y/N): Y

RCS size: SMALL

Orbital parameters

Period: 105.422 minutes

Inclination: 99.4124 deg

SMA: 7392.338 km

Apoapsis: 1180.91 km

Periapsis: 847.497 km

RAAN: 148.2727 deg

Eccentricy: 0.0225513

Argument of periapsis: 30.266 deg

Mean anomaly: 331.129 deg

Mean motion: 13.659349 rev/day

Mean motion (dot): 0.00000772 rev/day2

B* drag term: 0.0008331 1/REarth

Two-line elements (TLE)

Creation date: May 8, 2025, 3:01 a.m.

Reference frame: TEME

Reference center: EARTH

Epoch: May 7, 2025, 12:37 a.m. UTC

TLE line 0: 0 FENGYUN 1C DEB

TLE line 1: 1 31891U 99025CKS 25127.02603237 .00000772 00000-0 83310-3 0 9991

TLE line 2: 2 31891 99.4124 148.2727 0225513 30.2660 331.1290 13.65934900894100

Live tracking on map

Real-time ground track for satellite FENGYUN 1C DEB.

In-orbit conjunctions

A list of the most updated potential collisions computed for object FENGYUN 1C DEB.

Target Orbit TCA Probability of collision Miss distance Type
COSMOS 1275 DEB LEO 2024-12-02 23:03:24 0.0001575765 74.0 (m) DEBRIS

Associated space launch

Chinese polar orbiting meteorological satellite

FENGYUN 1C DEB was lifted into orbit during the mission ‘Long March 4B | Feng Yun 1C’, on board a Long March 4B space rocket.

The launch took place on May 10, 1999, 1:33 a.m. from Launch Complex 7.

For more information about the launch, click the button.

Launch to space Long March 4B | Feng Yun 1C
Long March 4B | Feng Yun 1C

Agency: N/A

Status: Launch Successful

Launch date: May 10, 1999, 1:33 a.m. UTC

Rocket: Long March 4B

Launch pad: Launch Complex 7

Location: Taiyuan Satellite Launch Center, People's Republic of China

...

Latest news about this satellite

There are no fresh news available about this satellite. Check back as we update our databases every day.


Newsletter sign-up

Weekly statistics, charts and insights to help you stay on top of the space industry.